Weather in Chodrayal

Russia / Mari El Republic     56°09′50″N   48°53′23″E
temp.,
°C
wind,
m/s
gust,
m/s
humid.,
%
clouds,
%
prec.,
mm/h
press.,
hPa
HPBL,
m
7 march, sun
sun700:00−14w229793 0.1 101121
03:00−15wsw239887 0.1 101129
06:00−16wsw239888 0.1 101033
09:00−13sw359487 0.1 1010241
12:00−9ssw469199 0.0 1008467
15:00−9s5891100 0.1 1005571
18:00−10s51291100 0.1 1003571
21:00−8s71394100 1.1 1000835
8 march, mon
mon800:00−7s61394100 1.4 995755
03:00−6s51194100 2.3 992671
06:00−5s51195100 1.5 989652
09:00−6sw71491100 2.3 989751
12:00−6w101691100 1.2 9921056
15:00−5w81475100 1.5 9961397
18:00−8wsw4119191 0.0 999405
21:00−11wsw369491 0.0 1001136
9 march, tue
tue900:00−13wsw129689 0.0 100121
03:00−14wnw229790 0.0 100121
06:00−15nw339793 0.0 100457
09:00−12nw359483 0.1 1006267
12:00−10nw348797 0.0 1008620
15:00−10nw458699 0.1 1009746
18:00−15nnw359597 0.0 101077
21:00−19nnw339768 0.1 101256
10 march, wed
wed1000:00−20nnw239977 0.0 101368
03:00−21nnw369883 0.1 1014152
06:00−24nnw369780 0.0 1016159
09:00−23n469485 0.0 1017287
12:00−20n468970 0.0 1019500
15:00−19nnw468560 0.0 1019501
18:00−24nw33948 0.0 102059
21:00−25wnw35984 0.0 102171
11 march, thu
thu1100:00−25w359911 0.0 102186
03:00−25w3710046 0.0 1021138
06:00−24w499991 0.0 1020209
09:00−19w489496 0.1 1020349
12:00−14wnw5889100 0.1 1019624
15:00−10wnw5888100 0.2 1020767
18:00−11wnw3795100 0.1 1021213
21:00−11wnw3109599 0.1 1023386